星链-31698 (STARLINK-31698 )

导读

STARLINK-31698是美国太空探索技术公司SpaceX星链卫星互联网项目的一颗卫星,于2024年4月2日在美国发射升空。星链计划旨在构建覆盖全球的低轨卫星互联网星座,该卫星入轨后,将和其他星链卫星协同工作,为全球多地用户提供高速互联网接入服务。

基本信息
目录编号:
59379
目录名称:
STARLINK-31698
国际标识:
2024-062F
轨道中心:
EARTH
卫星名称:
星链-31698
卫星全名:
星链-31698 (STARLINK-31698 )
卫星状态:
在轨 (已飞行807 天)
发射日期:
2024-04-02 UTC
国别 :
美国 (US)
星等 :
--
轨道信息
数据来源 国际轨道数据 AOE轨道数据
星历时间 2026-06-17T14:04:23+0800
21小时前
查看轨道信息
2026-06-12T00:00:00+0800
6天前
查看轨道信息
半长轴 6840.851km 6840.865km
偏心率 0.0001261 0.0001303
轨道倾角 53.159° 53.157°
近地点辐角 88.688° 106.465°
升交点赤经 152.604° 178.715°
平近点角 271.426° 338.302°
近地点 461.851km 461.836km
远地点 463.577km 463.62km
周期 93.848分钟 93.848分钟
每日圈数 15.343967 15.34392
详细信息
固有亮度:
5
最大亮度:
0.3
卫星平台:
Starlink v2.0 mini
覆盖范围:
全球
运营商:
太空探索技术公司
运营商所在国:
美国
制造商(研发单位):
太空探索技术公司
制造商所在国:
美国
使用方式:
暂无
卫星简介
星链(Starlink)计划是由太空探索技术公司(SpaceX)提出的一个巨型低轨卫星互联网星座项目,计划在2019年至2024年间在太空搭建由约1.2万颗卫星组成的“星链”网络,其中1584颗将部署在地球上空550千米处的近地轨道,并从2020年开始工作。该卫星仍在工作。
2D轨道图
3D轨道图
轨道高度分析图
轨道倾角分析图
轨道综合分析图
查看轨道综合分析图